Header for Extended Forecast Station List Page

Search by: ID | Name | Date | Parm | Value | Avg | % Avg
Sort by: ID | Name | Date | Parm | Value | Avg | % Avg

Enter search or view all records.

Click on id for station plot
#IDNameDateParmValueAvg% Avg
0LYDM8KOOTENAI-LIBBY DAM07-22-2021INFLOW (KAF)1130179063
1LEOI1KOOTENAI-AT LEONIA07-22-2021DISCHARGE (KAF)1494229265
2BFEI1KOOTENAI-AT BONNERS FERRY07-22-2021STAGE (FT)MMM
3FCFM8NF FLATHEAD-NEAR COLUMBIA FALLS07-22-2021DISCHARGE (KAF)18732358
4WGCM8MF FLATHEAD-NEAR WEST GLACIER07-22-2021DISCHARGE (KAF)18126967
5HHWM8SF FLATHEAD-HUNGRY HORSE DAM07-22-2021INFLOW (KAF)18626072
6CFMM8FLATHEAD-AT COLUMBIA FALLS07-22-2021DISCHARGE (KAF)941123476
7DLGM8CLARK FORK-AT DEER LODGE07-22-2021DISCHARGE (KAF)294664
8DRMM8CLARK FORK-NR DRUMMOND07-22-2021DISCHARGE (KAF)90MM
9RCCM8ROCK CREEK-NEAR CLINTON07-22-2021DISCHARGE (KAF)636991
10BONM8BLACKFOOT-NEAR BONNER07-22-2021DISCHARGE (KAF)15918188
11ABOM8CLARK FORK-ABOVE MISSOULA07-22-2021DISCHARGE (KAF)32539582
12BITM8BITTERROOT-NEAR MISSOULA07-22-2021DISCHARGE (KAF)18423479
13BELM8CLARK FORK-BELOW MISSOULA07-22-2021DISCHARGE (KAF)51063580
14STRM8ST. REGIS-NEAR ST. REGIS07-22-2021DISCHARGE (KAF)253180
15SRGM8CLARK FORK-AT ST REGIS07-22-2021DISCHARGE (KAF)64083277
16KERM8FLATHEAD-SELI’Š KSANKA QLISPE’ DAM07-22-2021INFLOW (KAF)979146667
17NOXM8CLARK FORK-NOXON RAPIDS DAM07-22-2021INFLOW (KAF)2175299073
18CABI1CLARK FORK-CABINET GORGE DAM07-22-2021INFLOW (KAF)2397317376
19PRTI1PRIEST-NEAR PRIEST RIVER07-22-2021DISCHARGE (KAF)13116678
20ALFW1PEND OREILLE-ALBENI FALLS DAM07-22-2021INFLOW (KAF)2468345172
21HOPI1PEND OREILLE-PEND OREILLE LAKE NR HOPE07-22-2021LAKE ELEVATION (FT)MMM
22COEI1COEUR D ALENE-COEUR D ALENE LAKE07-22-2021INFLOW (KAF)18423379
23SPOW1SPOKANE-AT SPOKANE07-22-2021DISCHARGE (KAF)288MM
24LLKW1SPOKANE-AT LONGLAKE07-22-2021INFLOW (KAF)43861272
25SATI1ST MARIES-NEAR SANTA07-22-2021DISCHARGE (KAF)131876
26SJMI1ST JOE-AT ST MARIES07-22-2021STAGE (FT)MMM
27CIBW1COLUMBIA-AT INTL BOUNDARY07-22-2021DISCHARGE (KAF)15329MM
28LAUW1KETTLE-AT LAURIER07-22-2021DISCHARGE (KAF)8716054
29GCDW1COLUMBIA-GRAND COULEE DAM07-22-2021INFLOW (KAF)158622141874
30CHJW1COLUMBIA-CHIEF JOSEPH DAM07-22-2021INFLOW (KAF)151672068373
31TONW1OKANOGAN-NEAR TONASKET07-22-2021DISCHARGE (KAF)16831653
32PATW1METHOW-NEAR PATEROS07-22-2021DISCHARGE (KAF)9813672
33WELW1COLUMBIA-WELLS DAM07-22-2021INFLOW (KAF)154532095074
34CHDW1CHELAN-LAKE CHELAN DAM07-22-2021INFLOW (KAF)14325157
35RRHW1COLUMBIA-ROCKY REACH DAM07-22-2021INFLOW (KAF)157722149173
36ARDW1ENTIAT-NEAR ARDENVOIR07-22-2021DISCHARGE (KAF)233567
37PESW1WENATCHEE-AT PESHASTIN07-22-2021DISCHARGE (KAF)21229572
38WANW1COLUMBIA-WANAPUM DAM07-22-2021INFLOW (KAF)160872174574
39PRWW1COLUMBIA-PRIEST RAPIDS DAM07-22-2021INFLOW (KAF)160952219173
40KEDW1YAKIMA-KEECHELUS LAKE07-22-2021INFLOW (KAF)3828139
41KADW1KACHESS-KACHESS DAM07-22-2021INFLOW (KAF)2718153
42EASW1YAKIMA-AT EASTON07-22-2021DISCHARGE (KAF)647289
43CLUW1CLE ELUM-CLE ELUM LAKE07-22-2021INFLOW (KAF)7878100
44TNAW1TEANAWAY-BELOW FORKS07-22-2021DISCHARGE (KAF)81087
45UMTW1YAKIMA-AT UMTANUM07-22-2021DISCHARGE (KAF)537529101
46BUDW1BUMPING-BUMPING LAKE DAM07-22-2021INFLOW (KAF)2322103
47CLFW1NACHES-NEAR CLIFFDEL07-22-2021DISCHARGE (KAF)8685101
48RILW1TIETON-RIMROCK LAKE NEAR RIMROCK07-22-2021INFLOW (KAF)7067105
49NACW1NACHES-NEAR NACHES07-22-2021DISCHARGE (KAF)10412186
50PARW1YAKIMA-NEAR PARKER07-22-2021DISCHARGE (KAF)15416692
51KIOW1YAKIMA-AT KIONA07-22-2021DISCHARGE (KAF)41846790
52IPDI1HENRYS FORK-ISLAND PARK DAM07-22-2021INFLOW (KAF)10514573
53CHEI1FALL RIVER-NEAR CHESTER07-22-2021DISCHARGE (KAF)717989
54ANTI1HENRYS FORK-AT ST. ANTHONY07-22-2021DISCHARGE (KAF)27732186
55TEAI1TETON-NEAR ST. ANTHONY07-22-2021DISCHARGE (KAF)12816677
56REXI1HENRYS FORK-AT REXBURG07-22-2021DISCHARGE (KAF)31937984
57JLKW4SNAKE-JACKSON LAKE AT DAM07-22-2021INFLOW (KAF)11116467
58JKSW4SNAKE-NEAR JACKSON07-22-2021DISCHARGE (KAF)950786121
59ALPW4SNAKE-NEAR ALPINE07-22-2021DISCHARGE (KAF)1046937112
60PLDI1SF SNAKE-PALISADES DAM07-22-2021INFLOW (KAF)1274129299
61HEII1SNAKE-NEAR HEISE07-22-2021DISCHARGE (KAF)1580160798
62RIDI1WILLOW CREEK-RIRIE DAM07-22-2021INFLOW (KAF)2636
63SIFI1SNAKE-AB EAGLE ROCK NR IDAHO FALLS07-22-2021DISCHARGE (KAF)11881182100
64SHYI1SNAKE-NEAR SHELLEY07-22-2021DISCHARGE (KAF)1079937115
65SNAI1SNAKE-AT BLACKFOOT07-22-2021DISCHARGE (KAF)709583122
66BFTI1SNAKE-NEAR BLACKFOOT07-22-2021DISCHARGE (KAF)716578124
67PIHI1PORTNEUF-AT POCATELLO07-22-2021DISCHARGE (KAF)133143
68AFRI1SNAKE-AMERICAN FALLS RESERVOIR07-22-2021INFLOW (KAF)13091239106
69MILI1SNAKE-AT MILNER07-22-2021DISCHARGE (KAF)360151238
70HOTI1BRUNEAU-NEAR HOT SPRINGS07-22-2021DISCHARGE (KAF)92240
71SWAI1SNAKE-BELOW SWAN FALLS07-22-2021DISCHARGE (KAF)1980210394
72HWRI1BIG LOST-AT HOWELL RANCH NEAR CHILLY07-22-2021DISCHARGE (KAF)174042
73MACI1BIG LOST-MACKAY RESERVOIR NEAR MACKAY07-22-2021INFLOW (KAF)242887
74HALI1BIG WOOD-AT HAILEY07-22-2021DISCHARGE (KAF)295849
75MAGI1BIG WOOD-MAGIC DAM07-22-2021INFLOW (KAF)72924
76LWRI1LITTLE WOOD-LITTLE WOOD DAM07-22-2021INFLOW (KAF)51534
77OWYO3OWYHEE-OWYHEE DAM07-22-2021INFLOW (KAF)325162
78ARAI1SF BOISE-ANDERSON RANCH DAM07-22-2021INFLOW (KAF)587478
79LUCI1BOISE-LUCKY PEAK DAM07-22-2021INFLOW (KAF)239MM
80BIGI1BOISE-AT GLENWOOD BRIDGE07-22-2021DISCHARGE (KAF)12314585
81PARI1BOISE-NEAR PARMA07-22-2021DISCHARGE (KAF)18722185
82WRMO3MALHEUR-WARM SPRINGS DAM07-22-2021INFLOW (KAF)54109
83BERO3MALHEUR-AGENCY VALLEY DAM07-22-2021INFLOW (KAF)6785
84BULO3BULLY CREEK-BULLY CREEK DAM07-22-2021INFLOW (KAF)M0M
85CSDI1NF PAYETTE-CASCADE DAM07-22-2021INFLOW (KAF)616792
86DEDI1DEADWOOD-NEAR LOWMAN07-22-2021INFLOW (KAF)122059
87EMMI1PAYETTE-NEAR EMMETT07-22-2021DISCHARGE (KAF)25640763
88WSRI1WEISER-NEAR WEISER07-22-2021DISCHARGE (KAF)445185
89WEII1SNAKE-AT WEISER07-22-2021DISCHARGE (KAF)2775307990
90BRNI1SNAKE-BROWNLEE DAM07-22-2021INFLOW (KAF)2897313492
91WHBI1SALMON-AT WHITEBIRD07-22-2021DISCHARGE (KAF)867126968
92TRYO3GRANDE RONDE-TROY07-22-2021DISCHARGE (KAF)10620552
93ANAW1SNAKE-NEAR ANATONE07-22-2021DISCHARGE (KAF)3719474378
94ORFI1CLEARWATER-AT OROFINO07-22-2021DISCHARGE (KAF)37952472
95DWRI1NF CLEARWATER-DWORSHAK DAM07-22-2021INFLOW (KAF)25937769
96SPDI1CLEARWATER-AT SPALDING07-22-2021DISCHARGE (KAF)14231052135
97LGDW1SNAKE-LOWER GRANITE DAM07-22-2021INFLOW (KAF)5137586088
98LGSW1SNAKE-LITTLE GOOSE DAM07-22-2021INFLOW (KAF)5154590187
99LMNW1SNAKE-LOWER MONUMENTAL DAM07-22-2021INFLOW (KAF)5166591987
100IHDW1SNAKE-ICE HARBOR DAM07-22-2021INFLOW (KAF)5166582489
101TCHW1WALLA WALLA-NEAR TOUCHET07-22-2021DISCHARGE (KAF)61155
102MCDW1COLUMBIA-MCNARY DAM07-22-2021INFLOW (KAF)218352888476
103GIBO3UMATILLA-NEAR GIBBON07-22-2021DISCHARGE (KAF)101277
104PDTO3UMATILLA-AT PENDLETON07-22-2021DISCHARGE (KAF)121489
105MYKO3MCKAY CREEK-NEAR PILOT ROCK07-22-2021DISCHARGE (KAF)0151
106UMAO3UMATILLA-NEAR UMATILLA07-22-2021DISCHARGE (KAF)4212334
107MONO3NF JOHN DAY-AT MONUMENT07-22-2021DISCHARGE (KAF)243766
108SERO3JOHN DAY-AT SERVICE CK07-22-2021DISCHARGE (KAF)356255
109JDAO3COLUMBIA-JOHN DAY DAM07-22-2021INFLOW (KAF)222072936476
110MODO3DESCHUTES-AT MOODY NR BIGGS07-22-2021DISCHARGE (KAF)1079111197
111TDAO3COLUMBIA-THE DALLES DAM07-22-2021INFLOW (KAF)227962976577
112PITW1KLICKITAT-NEAR PITT07-22-2021DISCHARGE (KAF)14919377
113HODO3HOOD-NEAR TUCKER BRIDGE07-22-2021DISCHARGE (KAF)949895
114UNDW1WHITE SALMON-NEAR UNDERWOOD07-22-2021DISCHARGE (KAF)13115982
115BONO3COLUMBIA-BONNEVILLE DAM07-22-2021INFLOW (KAF)231863084475